Location: Killam
(52.7910°N, 111.8608°W)
Time: 12:14:38
(UTC+00:00)

AO-73 - Pass Details

Date: 12 March 2026
Orbit: 514 x 567 km, 97.8° (Epoch: 13 April)

Event Time Altitude Azimuth Distance (km) Brightness Sun altitude
Rises 10:48:26 0° 20° (NNE) 2,691 ? -26.8°
Reaches altitude 10° 10:50:42 10° 29° (NNE) 1,786 ? -26.5°
Maximum altitude 10:54:16 36° 97° (E) 850 ? -26.0°
Enters shadow 10:54:34 35° 109° (ESE) 859 ? -26.0°
